[[{"header":{"parameterUnit":"m.s-1","parameterCategory":1,"la1":30.2991,"la2":30.254,"lo1":-89.0895,"lo2":-89.0444,"dy":0.0017,"dx":0.0017,"nx":28,"ny":28,"refTime":"2024-04-11T09:00:00:Z","depth":0,"parameterNumber":2,"parameterNumberName":"U-component_of_WINDS"},"data":[0,0,0,0,0,0,0,0,0,0,0,0,0,0,0,0,0,0,0,0,0,0,0,0,0,0,0,0,0,0,0,0,0,0,0,0,0,0,0,0,0,0,0,0,0,0,0,0,0,0,0,0,0,0,0,0,0,0,9.1012,9.1015,0,9.1268,9.1271,9.1274,9.116,9.1153,9.1147,9.1141,9.141,9.1423,9.1435,0,0,0,0,0,0,0,0,0,0,0,0,0,9.0428,9.0439,9.1012,9.1015,9.1018,9.1268,9.1271,9.1275,9.1161,9.1153,9.1145,9.1138,9.1406,9.1421,9.1437,0,0,0,0,0,0,0,0,0,0,0,0,0,9.0683,9.0443,9.1011,9.0991,9.0992,9.1267,9.1271,9.1276,9.1163,9.1153,9.1143,9.1135,9.14,9.1419,9.1439,9.175,0,0,9.1499,9.1507,0,0,0,0,0,0,0,0,9.0669,9.0705,9.0991,9.0993,9.0994,9.1172,9.1164,9.1435,9.1165,9.1098,9.1141,9.113,9.1339,9.1363,9.1432,9.1763,9.1775,9.15,9.1512,9.1521,9.1526,0,0,0,0,0,0,0,9.0651,9.0693,9.1113,9.0995,9.0997,9.0971,9.0997,9.1215,9.1269,9.1103,9.1095,9.1127,9.1338,9.1414,9.1438,9.1778,9.15,9.1517,9.1529,9.1537,9.2378,9.2388,0,0,0,0,0,0,9.0633,9.0679,9.1105,9.1121,9.0805,9.0989,9.1018,9.1125,9.1266,9.1278,9.1135,9.1121,9.1385,9.1415,9.1447,9.1821,9.1521,9.1539,9.155,9.2367,9.238,9.2392,0,0,0,0,0,0,9.0621,9.0672,9.1095,9.0898,9.095,9.1009,9.113,9.1135,9.121,9.129,9.13,9.1202,9.1378,9.1419,9.1675,9.1828,9.1548,9.1566,9.2355,9.2371,9.2386,9.2571,0,0,0,0,0,0,9.0605,9.0668,9.0786,9.0901,9.0961,9.1318,9.114,9.1147,9.1244,9.1228,9.1355,9.1368,9.1374,9.1647,9.1695,9.185,9.1581,9.2342,9.2362,9.2381,9.2552,9.2592,9.2626,0,0,0,0,0,9.0584,9.083,9.0793,9.0845,9.1109,9.1327,9.1361,9.1362,9.1256,9.1376,9.1427,9.1363,9.1804,9.1674,9.1727,9.1891,9.2332,9.2356,9.2379,9.2535,9.2584,9.2625,0,0,0,0,0,0,9.0733,9.0844,9.0805,9.1095,9.1202,9.1307,9.1458,9.1413,9.1555,9.1534,9.1531,9.1561,9.1826,9.1884,9.1737,9.22,9.2052,9.2088,9.2152,9.2199,9.2235,9.2216,9.1597,0,0,0,0,0,9.0799,9.0966,9.1054,9.1302,9.1357,9.1399,9.1494,9.1485,9.1597,9.1643,9.1713,9.1826,9.1989,9.2097,9.2252,9.2559,9.2586,9.2698,9.2735,9.2765,9.2796,9.2963,9.3014,9.247,9.247,9.2469,0,0,9.0939,9.102,9.1126,9.1334,9.1416,9.159,9.1438,9.1629,9.1758,9.1672,9.1918,9.1974,9.2099,9.2382,9.2511,9.2439,9.2952,9.2795,9.2819,9.2834,9.2993,9.3044,9.309,9.2486,9.2483,9.248,0,0,9.1281,9.1359,9.1573,9.1658,9.1784,9.181,9.1861,9.1974,9.2007,9.2253,9.2192,9.2347,9.2629,9.2721,9.2804,9.3181,9.3128,9.3232,9.3425,9.3588,9.363,9.3668,9.3803,9.3851,9.3262,9.3263,9.3263,0,9.1439,9.1696,9.169,9.1885,9.1978,9.1907,9.2124,9.2208,9.2379,9.2446,9.2363,9.2714,9.2794,9.3097,9.3189,9.3259,9.3319,9.3217,9.3624,9.3662,9.3698,9.3826,9.3877,9.3275,9.3273,9.3272,9.3271,0,9.1884,9.2064,9.2222,9.2387,9.2498,9.2704,9.273,9.2844,9.2825,9.286,9.3112,9.3205,9.3377,9.3448,9.3433,9.3751,9.3702,9.3622,9.3474,9.3762,9.3882,9.3931,9.3292,9.3287,9.3284,9.3281,0,0,9.2329,9.2486,9.2544,9.2618,9.2751,9.289,9.3093,9.3259,9.3357,9.3478,9.3648,9.3888,9.3814,9.391,9.3904,9.4047,9.4339,9.3949,9.3952,9.4019,9.4695,9.4755,9.4812,9.4304,9.4314,9.4321,9.4685,0,9.2681,9.3034,9.3034,9.336,9.3526,9.346,9.3637,9.3739,9.3777,9.3925,9.3968,9.4138,9.4027,9.4084,9.4223,9.4274,9.4475,9.4248,9.4465,9.4472,9.4435,9.4875,9.4939,9.5277,9.4732,9.474,9.4745,0,9.314,9.3273,9.3615,9.3723,9.3793,9.3952,9.4104,9.4245,9.436,9.4377,9.4483,9.4456,9.4663,9.4508,9.4795,9.464,9.4729,9.4768,9.4781,9.4801,9.4627,9.4908,9.5385,9.5436,9.482,9.4814,9.4808,0,9.343,9.3695,9.3934,9.3999,9.4131,9.4244,9.4304,9.4409,9.4509,9.4643,9.4707,9.4865,9.4951,9.5074,9.509,9.4975,9.5379,9.5224,9.54,9.54,9.5489,9.5483,9.5987,9.5546,9.5545,9.5544,9.5543,0,9.3824,9.4036,9.4065,9.4213,9.4449,9.4447,9.4681,9.4732,9.4826,9.4983,9.4936,9.5085,9.5096,9.525,9.5264,9.5499,9.5539,9.556,9.5561,9.5564,9.5562,9.5623,9.56,9.5557,9.5554,9.5552,9.555,0,9.4189,9.4216,9.4473,9.4576,9.4607,9.4776,9.4865,9.5007,9.5039,9.5239,9.5285,9.5338,9.5516,9.5544,9.5754,9.5763,9.6045,9.6022,9.6006,9.6003,9.6177,9.6161,9.6739,9.6814,9.6323,9.6328,9.6332,0,9.4438,9.46,9.4719,9.482,9.4886,9.5049,9.515,9.5154,9.5262,9.5403,9.5528,9.5701,9.5839,9.6127,9.6185,9.6345,9.6326,9.6517,9.635,9.6348,9.6329,9.6319,9.6335,9.655,9.6555,9.6559,9.6563,0,9.4879,9.4884,9.503,9.5182,9.5304,9.5424,9.5537,9.5623,9.5642,9.5766,9.5946,9.6053,9.6265,9.6438,9.6596,9.666,9.6617,9.6615,9.6664,9.6669,9.6653,9.6664,9.6094,9.6602,9.6598,9.6595,9.6593,9.6592,9.5194,9.5334,9.544,9.5604,9.5689,9.5796,9.5934,9.5983,9.6132,9.6304,9.6298,9.6497,9.6606,9.6814,9.6889,9.7045,9.6983,9.7055,9.7073,9.709,9.7107,9.6628,9.7074,9.7073,9.7072,9.7071,9.707,0,9.5632,9.5696,9.5847,9.6006,9.6136,9.608,9.6203,9.6316,9.649,9.6595,9.6731,9.6939,9.7105,9.7176,9.734,9.7451,9.7435,9.7494,9.7487,9.7502,9.7153,9.7094,9.7505,9.7505,9.7505,9.7504,9.7504,9.7504,9.5875,9.6109,9.6127,9.6403,9.6466,9.6658,9.6733,9.6832,9.6915,9.7148,9.7285,9.7329,9.7421,9.7591,9.7742,9.7758,9.7821,9.789,9.7898,9.7571,9.7527,9.7485,9.7429,9.7903,9.7904,9.8233,9.8236,9.8239]},{"header":{"parameterUnit":"m.s-1","parameterCategory":1,"la1":30.2991,"la2":30.254,"lo1":-89.0895,"lo2":-89.0444,"dy":0.0017,"dx":0.0017,"nx":28,"ny":28,"refTime":"2024-04-11T09:00:00:Z","depth":0,"parameterNumber":3,"parameterNumberName":"V-component_of_WINDS"},"data":[0,0,0,0,0,0,0,0,0,0,0,0,0,0,0,0,0,0,0,0,0,0,0,0,0,0,0,0,0,0,0,0,0,0,0,0,0,0,0,0,0,0,0,0,0,0,0,0,0,0,0,0,0,0,0,0,0,0,0.5803,0.5803,0,0.5743,0.5742,0.5742,0.5715,0.5715,0.5715,0.5715,0.5649,0.5647,0.5645,0,0,0,0,0,0,0,0,0,0,0,0,0,0.5891,0.589,0.5803,0.5803,0.5802,0.5743,0.5742,0.5742,0.5715,0.5715,0.5715,0.5715,0.565,0.5647,0.5645,0,0,0,0,0,0,0,0,0,0,0,0,0,0.5844,0.5889,0.5804,0.5782,0.5779,0.5743,0.5742,0.5741,0.5715,0.5715,0.5715,0.5715,0.565,0.5648,0.5645,0.5626,0,0,0.5637,0.5635,0,0,0,0,0,0,0,0,0.5847,0.5841,0.5785,0.5783,0.578,0.5737,0.5749,0.5702,0.5715,0.5739,0.5715,0.5715,0.5678,0.5673,0.5661,0.5622,0.562,0.5636,0.5635,0.5633,0.5633,0,0,0,0,0,0,0,0.585,0.5843,0.5779,0.5785,0.5781,0.5773,0.5767,0.574,0.5708,0.5737,0.5735,0.5728,0.5676,0.5664,0.5659,0.5619,0.5636,0.5634,0.5632,0.5631,0.556,0.556,0,0,0,0,0,0,0.5857,0.5846,0.5781,0.5778,0.5815,0.5772,0.5764,0.575,0.5709,0.5702,0.5728,0.5727,0.5668,0.5663,0.5657,0.5631,0.5634,0.5631,0.5629,0.556,0.556,0.556,0,0,0,0,0,0,0.5859,0.5852,0.5784,0.5811,0.5802,0.577,0.5755,0.5749,0.5737,0.5702,0.5696,0.5722,0.5668,0.5661,0.5634,0.5628,0.563,0.5627,0.5561,0.556,0.556,0.558,0,0,0,0,0,0,0.5862,0.5853,0.5846,0.5811,0.5801,0.5763,0.5754,0.5748,0.5732,0.5731,0.5694,0.5688,0.5668,0.5638,0.5631,0.5625,0.5625,0.5561,0.556,0.556,0.5579,0.558,0.5581,0,0,0,0,0,0.5865,0.5853,0.5846,0.5838,0.5792,0.5763,0.5756,0.5734,0.5732,0.5725,0.5702,0.5689,0.563,0.5635,0.5627,0.562,0.5561,0.5561,0.556,0.5579,0.558,0.5581,0,0,0,0,0,0,0.5887,0.5848,0.584,0.5816,0.5793,0.5758,0.5748,0.5736,0.5712,0.5711,0.5683,0.5675,0.5651,0.5632,0.5639,0.5599,0.5594,0.5592,0.5612,0.5612,0.5613,0.5617,0.5623,0,0,0,0,0,0.5889,0.587,0.5837,0.5819,0.5808,0.578,0.5767,0.5752,0.5726,0.5716,0.5691,0.5666,0.5641,0.5626,0.5601,0.5576,0.5568,0.5567,0.5568,0.5569,0.5567,0.5552,0.5551,0.5558,0.5558,0.5558,0,0,0.5893,0.587,0.5859,0.5823,0.5803,0.5783,0.5772,0.5751,0.5735,0.5712,0.5685,0.5666,0.5636,0.561,0.5597,0.5594,0.5563,0.5568,0.5569,0.5567,0.5551,0.5551,0.555,0.5558,0.5558,0.5558,0,0,0.589,0.5871,0.5854,0.5835,0.5806,0.5787,0.5783,0.575,0.5737,0.571,0.5692,0.5672,0.5631,0.5609,0.5593,0.5582,0.5569,0.5575,0.5578,0.5564,0.5563,0.5562,0.5558,0.5557,0.5573,0.5573,0.5573,0,0.5898,0.5868,0.5847,0.5827,0.5811,0.5791,0.5773,0.5754,0.5718,0.5707,0.5704,0.5652,0.563,0.5598,0.5596,0.5583,0.5577,0.5579,0.5565,0.5564,0.5563,0.5559,0.5557,0.5574,0.5574,0.5574,0.5574,0,0.588,0.5859,0.5849,0.5816,0.5799,0.578,0.5754,0.5739,0.5726,0.5707,0.5679,0.5652,0.5622,0.5613,0.5599,0.5579,0.5578,0.5571,0.5566,0.5564,0.5559,0.5557,0.5575,0.5575,0.5575,0.5575,0,0,0.5889,0.5844,0.5841,0.5826,0.5792,0.5775,0.5754,0.5726,0.5713,0.5689,0.567,0.5636,0.5629,0.561,0.5593,0.5581,0.5573,0.5575,0.5573,0.5575,0.5549,0.5555,0.5553,0.5564,0.5564,0.5564,0.5551,0,0.5881,0.5845,0.5825,0.5797,0.5777,0.5757,0.5739,0.5716,0.5698,0.5677,0.5656,0.5632,0.5625,0.5613,0.56,0.5577,0.5567,0.5578,0.5546,0.5545,0.5554,0.5551,0.5557,0.5546,0.5549,0.5549,0.5549,0,0.5867,0.5845,0.5815,0.5784,0.5774,0.5759,0.5731,0.5712,0.5684,0.5672,0.5652,0.5635,0.5611,0.5608,0.5575,0.5582,0.5567,0.5554,0.5553,0.5549,0.5547,0.5546,0.5543,0.5541,0.5545,0.5546,0.5546,0,0.5876,0.5838,0.5816,0.5803,0.5766,0.5755,0.5739,0.5712,0.5696,0.5671,0.566,0.5632,0.5617,0.5595,0.557,0.5571,0.5539,0.5534,0.5526,0.5527,0.5521,0.5521,0.5515,0.5512,0.5512,0.5512,0.5512,0,0.587,0.5852,0.582,0.5806,0.5785,0.5762,0.5741,0.5723,0.5699,0.568,0.566,0.5643,0.5612,0.559,0.5571,0.5545,0.5538,0.5527,0.5522,0.5528,0.553,0.5518,0.5518,0.5511,0.5511,0.5512,0.5512,0,0.5876,0.5854,0.5828,0.5795,0.5786,0.5773,0.5743,0.5728,0.5709,0.5686,0.5679,0.5648,0.5621,0.5595,0.5558,0.5545,0.552,0.5513,0.553,0.5527,0.5521,0.5522,0.5506,0.5503,0.5503,0.5503,0.5503,0,0.5873,0.586,0.5826,0.5813,0.5797,0.5776,0.576,0.5736,0.5719,0.5687,0.5675,0.5648,0.5624,0.5582,0.5555,0.5527,0.5519,0.5516,0.5515,0.5522,0.5519,0.552,0.5518,0.5516,0.5516,0.5517,0.5517,0,0.5871,0.586,0.5839,0.5814,0.5796,0.5774,0.5752,0.5741,0.5712,0.5695,0.5668,0.565,0.5613,0.5585,0.5554,0.5535,0.5521,0.5517,0.5514,0.5521,0.5531,0.5525,0.5531,0.5518,0.5518,0.5517,0.5517,0.5517,0.5872,0.5859,0.5833,0.581,0.5791,0.5771,0.5755,0.5734,0.5712,0.5682,0.5668,0.5641,0.5612,0.5569,0.555,0.5528,0.5524,0.5519,0.5518,0.5517,0.5518,0.5535,0.5522,0.5522,0.5521,0.5521,0.5521,0,0.5868,0.5851,0.583,0.58,0.5781,0.5771,0.5745,0.573,0.5707,0.5682,0.566,0.5629,0.5601,0.5573,0.5543,0.553,0.5523,0.5524,0.5524,0.552,0.5524,0.5529,0.553,0.553,0.553,0.553,0.553,0.553,0.5864,0.5841,0.5828,0.5795,0.5777,0.5752,0.5738,0.5718,0.5699,0.5666,0.5643,0.5626,0.5599,0.5568,0.5542,0.5534,0.5523,0.5526,0.5516,0.552,0.552,0.5519,0.5524,0.5524,0.5524,0.5514,0.5514,0.5514]}]]